Marion, VA

8:52 AM EDT on September 19, 2017 (GMT -0400)
Mountain Empire

Weather History for KMKJ - December, 2011

Change the Weather History Date:

Tuesday, December 27, 2011

  Actual Average (KBLF) Record (KBLF)
Temperature  
Mean Temperature 42 °F -  
Max Temperature 50 °F 40 °F 74 °F (2015)
Min Temperature 35 °F 26 °F 9 °F (1977)
Degree Days  
Heating Degree Days 22    
Moisture  
Dew Point 35 °F    
Average Humidity 77    
Maximum Humidity 93    
Minimum Humidity 46    
Precipitation  
Precipitation 0.22 in - - ()
Sea Level Pressure  
Sea Level Pressure 29.75 in    
Wind  
Wind Speed 14 mph (SSE)    
Max Wind Speed 29 mph    
Max Gust Speed 43 mph    
Visibility 9 miles    
Events Rain , Snow    
Averages and records for this station are not official NWS values.
T = Trace of Precipitation, MM = Missing Value Source: NWS Daily Summary

Daily Weather History Graph

Daily Weather History Graph

Search for Another Location

Airport or City:

Trip Planner

Search our weather history database for the weather conditions in past years. The results will help you decide how hot, cold, wet, or windy it might be!

Date:

Astronomy

Dec. 27, 2011 Rise Set
Actual Time 7:37 AM EST 5:15 PM EST
Civil Twilight 7:08 AM EST 5:44 PM EST
Nautical Twilight 6:35 AM EST 6:17 PM EST
Astronomical Twilight 6:03 AM EST 6:48 PM EST
Moon 9:35 AM EST (12/27) 8:43 PM EST (12/27)
Length of Visible Light 10h 36m
Length of Day
9h 38m
Waxing Crescent, 11% of the Moon is Illuminated
Dec 27
Waxing Crescent
Jan 1
First Quarter
Jan 9
Full
Jan 16
Last Quarter
Jan 23
New

Hourly Weather History & Observations

Time (EST) Temp. Windchill Dew Point Humidity Pressure Visibility Wind Dir Wind Speed Gust Speed Precip Events Conditions
12:35 AM 42.8 °F 36.6 °F 23.0 °F 46% 30.08 in 10.0 mi East 11.5 mph - N/A   Clear
12:55 AM 42.8 °F 35.4 °F 23.0 °F 46% 30.09 in 10.0 mi East 15.0 mph 19.6 mph N/A   Clear
1:15 AM 42.8 °F 35.1 °F 23.0 °F 46% 30.06 in 10.0 mi East 16.1 mph 21.9 mph N/A   Scattered Clouds
1:35 AM 42.8 °F 36.6 °F 23.0 °F 46% 30.06 in 10.0 mi ESE 11.5 mph 17.3 mph N/A   Scattered Clouds
1:55 AM 42.8 °F 35.8 °F 24.8 °F 49% 30.05 in 10.0 mi East 13.8 mph - N/A   Mostly Cloudy
2:15 AM 42.8 °F 36.2 °F 26.6 °F 53% 30.05 in 10.0 mi East 12.7 mph 17.3 mph N/A   Overcast
2:35 AM 42.8 °F 36.2 °F 24.8 °F 49% 30.06 in 10.0 mi East 12.7 mph 20.7 mph N/A   Overcast
2:55 AM 42.8 °F 35.1 °F 23.0 °F 46% 30.03 in 10.0 mi ENE 16.1 mph - N/A   Overcast
3:15 AM 42.8 °F 35.1 °F 24.8 °F 49% 30.02 in 10.0 mi NE 16.1 mph 20.7 mph N/A   Overcast
3:35 AM 42.8 °F 36.2 °F 26.6 °F 53% 30.02 in 10.0 mi NE 12.7 mph 18.4 mph N/A   Overcast
3:55 AM 41.0 °F 32.5 °F 28.4 °F 61% 30.00 in 10.0 mi East 17.3 mph 26.5 mph N/A Rain Light Rain
4:15 AM 41.0 °F 32.5 °F 28.4 °F 61% 29.97 in 10.0 mi ENE 17.3 mph 26.5 mph N/A   Overcast
4:35 AM 41.0 °F 33.9 °F 28.4 °F 61% 29.96 in 10.0 mi ENE 12.7 mph 23.0 mph N/A   Overcast
4:55 AM 41.0 °F 33.9 °F 30.2 °F 65% 29.94 in 10.0 mi NNE 12.7 mph 19.6 mph N/A   Overcast
5:15 AM 41.0 °F 37.1 °F 30.2 °F 65% 29.94 in 10.0 mi ENE 5.8 mph 20.7 mph N/A Rain Light Rain
5:35 AM 41.0 °F 39.0 °F 30.2 °F 65% 29.94 in 10.0 mi East 3.5 mph 9.2 mph N/A Rain Light Rain
5:55 AM 39.2 °F 35.0 °F 32.0 °F 75% 29.93 in 7.0 mi NNW 5.8 mph - 0.03 in Rain Heavy Rain
6:15 AM 39.2 °F 33.0 °F 33.8 °F 81% 29.89 in 10.0 mi NNE 9.2 mph - 0.04 in Rain Light Rain
6:35 AM 37.4 °F 34.9 °F 33.8 °F 87% 29.88 in 10.0 mi North 3.5 mph 9.2 mph 0.05 in Rain Light Rain
6:55 AM 41.0 °F 36.4 °F 37.4 °F 87% 29.86 in 10.0 mi ESE 6.9 mph - 0.05 in Rain Rain
7:15 AM 41.0 °F 34.7 °F 37.4 °F 87% 29.84 in 10.0 mi East 10.4 mph - 0.01 in Rain Light Rain
7:35 AM 41.0 °F 35.8 °F 39.2 °F 93% 29.82 in 10.0 mi ENE 8.1 mph - 0.01 in   Light Drizzle
7:55 AM 39.2 °F 32.5 °F 37.4 °F 93% 29.79 in 7.0 mi East 10.4 mph - 0.02 in Rain Light Rain
8:15 AM 42.8 °F 37.0 °F 41.0 °F 93% 29.76 in 7.0 mi East 10.4 mph 17.3 mph N/A Rain Light Rain
8:35 AM 44.6 °F 40.7 °F 42.8 °F 93% 29.76 in 10.0 mi East 6.9 mph 16.1 mph 0.01 in Rain Light Rain
9:15 AM 44.6 °F 37.2 °F 42.8 °F 93% 29.70 in 7.0 mi ESE 17.3 mph 24.2 mph 0.02 in Rain Light Rain
9:35 AM 46.4 °F 41.1 °F 42.8 °F 87% 29.68 in 10.0 mi ESE 11.5 mph 29.9 mph 0.02 in Rain Light Rain
9:55 AM 44.6 °F 37.8 °F 42.8 °F 93% 29.67 in 4.0 mi East 15.0 mph 25.3 mph 0.03 in Rain Light Rain
10:15 AM 44.6 °F 42.2 °F 42.8 °F 93% 29.67 in 4.0 mi East 4.6 mph 17.3 mph 0.01 in Rain Rain
10:35 AM 44.6 °F 43.1 °F 42.8 °F 93% 29.66 in 5.0 mi ENE 3.5 mph - 0.03 in Rain Light Rain
10:55 AM 46.4 °F 40.7 °F 41.0 °F 81% 29.58 in 10.0 mi SE 12.7 mph 24.2 mph 0.04 in Rain Light Rain
11:15 AM 46.4 °F 45.2 °F 41.0 °F 81% 29.61 in 10.0 mi South 3.5 mph 10.4 mph N/A   Overcast
11:35 AM 46.4 °F 41.5 °F 42.8 °F 87% 29.60 in 10.0 mi South 10.4 mph - N/A   Overcast
11:55 AM 46.4 °F 42.9 °F 42.8 °F 87% 29.55 in 10.0 mi SSE 6.9 mph 19.6 mph N/A   Mostly Cloudy
12:15 PM 50.0 °F - 42.8 °F 76% 29.53 in 10.0 mi South 17.3 mph 26.5 mph N/A   Mostly Cloudy
12:35 PM 50.0 °F - 42.8 °F 76% 29.52 in 10.0 mi South 10.4 mph 18.4 mph N/A   Overcast
1:15 PM 48.2 °F - 42.8 °F 82% 29.53 in 10.0 mi WSW 25.3 mph 34.5 mph 0.01 in Rain Rain
1:35 PM 46.4 °F 39.2 °F 41.0 °F 81% 29.53 in 10.0 mi WSW 18.4 mph 38.0 mph 0.01 in   Overcast
1:55 PM 44.6 °F 35.5 °F 41.0 °F 87% 29.53 in 7.0 mi WSW 25.3 mph 33.4 mph 0.01 in   Overcast
2:15 PM 44.6 °F 35.9 °F 41.0 °F 87% 29.54 in 10.0 mi WSW 23.0 mph 34.5 mph N/A   Overcast
2:35 PM 44.6 °F 36.6 °F 39.2 °F 81% 29.54 in 7.0 mi WSW 19.6 mph 35.7 mph N/A   Overcast
2:55 PM 44.6 °F 36.6 °F 39.2 °F 81% 29.55 in 10.0 mi WSW 19.6 mph 33.4 mph N/A   Overcast
3:15 PM 44.6 °F 36.9 °F 37.4 °F 76% 29.55 in 7.0 mi WSW 18.4 mph 28.8 mph N/A Rain Light Rain
3:35 PM 44.6 °F 35.5 °F 37.4 °F 76% 29.55 in 7.0 mi WSW 25.3 mph 32.2 mph N/A Rain Rain
3:55 PM 42.8 °F 34.8 °F 37.4 °F 81% 29.56 in 7.0 mi WSW 17.3 mph 34.5 mph 0.01 in Rain Rain
4:15 PM 42.8 °F 33.5 °F 37.4 °F 81% 29.57 in 10.0 mi WSW 23.0 mph 36.8 mph N/A   Light Drizzle
4:35 PM 42.8 °F 33.3 °F 37.4 °F 81% 29.58 in 10.0 mi WSW 24.2 mph 36.8 mph N/A   Overcast
4:55 PM 42.8 °F 33.8 °F 37.4 °F 81% 29.59 in 10.0 mi WSW 21.9 mph 41.4 mph 0.01 in   Overcast
5:15 PM 41.0 °F 30.7 °F 37.4 °F 87% 29.59 in 10.0 mi West 25.3 mph 34.5 mph N/A Rain Light Rain
5:35 PM 41.0 °F 31.6 °F 35.6 °F 81% 29.61 in 10.0 mi WSW 20.7 mph 34.5 mph N/A   Overcast
5:55 PM 41.0 °F 30.7 °F 33.8 °F 76% 29.61 in 10.0 mi WSW 25.3 mph 39.1 mph N/A   Overcast
6:15 PM 39.2 °F 27.6 °F 33.8 °F 81% 29.61 in 10.0 mi West 28.8 mph 39.1 mph N/A   Overcast
6:55 PM 37.4 °F 25.9 °F 33.8 °F 87% 29.64 in 10.0 mi West 25.3 mph 32.2 mph N/A   Overcast
7:15 PM 37.4 °F 26.4 °F 35.6 °F 93% 29.65 in 5.0 mi West 23.0 mph 29.9 mph N/A Rain Light Rain
7:35 PM 37.4 °F 28.2 °F 35.6 °F 93% 29.68 in 5.0 mi WSW 16.1 mph 26.5 mph N/A Rain Rain
7:55 PM 37.4 °F 26.1 °F 33.8 °F 87% 29.69 in 7.0 mi West 24.2 mph 32.2 mph 0.01 in Rain Rain
8:35 PM 35.6 °F 25.2 °F 33.8 °F 93% 29.70 in 4.0 mi West 18.4 mph 29.9 mph N/A Snow Light Snow
8:55 PM 35.6 °F 24.0 °F 33.8 °F 93% 29.69 in 3.0 mi West 23.0 mph 29.9 mph N/A Snow Light Snow
9:15 PM 35.6 °F 24.5 °F 33.8 °F 93% 29.69 in 4.0 mi West 20.7 mph 33.4 mph N/A Snow Light Snow
9:35 PM 35.6 °F 24.2 °F 33.8 °F 93% 29.70 in 10.0 mi West 21.9 mph 33.4 mph N/A   Overcast
9:55 PM 35.6 °F 23.7 °F 32.0 °F 87% 29.69 in 10.0 mi West 24.2 mph 42.6 mph N/A   Overcast
10:15 PM 35.6 °F 24.8 °F 32.0 °F 87% 29.70 in 7.0 mi West 19.6 mph 35.7 mph N/A   Overcast
10:35 PM 35.6 °F 23.7 °F 32.0 °F 87% 29.71 in 10.0 mi West 24.2 mph 33.4 mph N/A   Overcast
10:55 PM 35.6 °F 23.0 °F 32.0 °F 87% 29.70 in 10.0 mi West 27.6 mph 39.1 mph N/A   Overcast
11:15 PM 35.6 °F 24.5 °F 32.0 °F 87% 29.72 in 10.0 mi West 20.7 mph 36.8 mph N/A   Overcast
11:35 PM 35.6 °F 24.5 °F 32.0 °F 87% 29.72 in 10.0 mi West 20.7 mph 33.4 mph N/A   Overcast
11:55 PM 35.6 °F 24.2 °F 32.0 °F 87% 29.72 in 3.0 mi West 21.9 mph 35.7 mph N/A Snow Light Snow